Date String (YYYY-MM-DD hh:mm:ss) UTC,Instrument flags,absolute air pressure of the measurement (hPa),sample flow rate (lpm),inlet stack bypass flow (lpm),air temperature of the measurement (°C),ambient temperature measured by the external sensor (°C),aerosol sample conditioner tube jacket temperature (°C),OPC LED temperature (°C),internal box temperature (°C),relative humidity of the measurement (%),span deviation,mass concentration of particles derived from Lorenz-Mie calculation of OPC scattering (μg/m³),mass concentration of particles derived from Lorenz-Mie calculation of OPC scattering (μg/m³),mass concentration of particles derived from Lorenz-Mie calculation of OPC scattering (μg/m³)
DateTimeUTC,F1_M11,P_M11,Q1_M11,Q2_M11,T1_M11,T2_M11,T3_M11,T4_M11,T5_M11,U1_M11,ZSPAN_M11,X2_M11,X0_M11,X1_M11
2023-07-22 22:00:00,SystemResetWarning,0834.3,5.00,000.00,028.5,026.1,000.0,036.8,030.1,29.4,0000.0,0005.61,0010.46,0005.17
2023-07-22 22:01:00,SystemResetWarning,0834.6,5.00,000.00,028.6,026.6,000.0,036.8,030.2,29.4,0000.0,0005.62,0010.56,0005.17
2023-07-22 22:02:00,SystemResetWarning,0834.6,5.00,000.00,028.6,027.0,000.0,036.9,030.3,29.1,0000.0,0005.61,0010.55,0005.17
2023-07-22 22:03:00,SystemResetWarning,0834.5,5.01,000.00,028.7,027.3,000.0,036.9,030.4,28.0,0000.0,0005.64,0010.56,0005.18
2023-07-22 22:04:00,SystemResetWarning,0834.7,4.99,000.00,028.7,027.4,000.0,036.9,030.5,27.2,0000.0,0005.64,0010.54,0005.18
2023-07-22 22:05:00,SystemResetWarning,0834.4,4.99,000.00,028.7,026.0,000.0,036.8,030.3,28.5,0000.0,0005.66,0010.31,0005.18
2023-07-22 22:06:00,SystemResetWarning,0834.3,5.02,000.00,028.7,024.9,000.0,036.8,030.1,28.0,0000.3,0005.67,0010.33,0005.19
2023-07-22 22:07:00,SystemResetWarning,0834.2,5.00,000.00,028.6,025.0,000.0,036.7,030.0,27.8,0000.0,0005.65,0009.66,0005.19
2023-07-22 22:08:00,SystemResetWarning,0834.2,4.99,000.00,028.6,025.4,000.0,036.8,030.0,26.9,0000.0,0005.61,0009.24,0005.18
2023-07-22 22:09:00,SystemResetWarning,0834.2,5.00,000.00,028.6,025.9,000.0,036.8,030.1,28.4,0000.0,0005.58,0009.16,0005.18
2023-07-22 22:10:00,SystemResetWarning,0834.2,5.01,000.00,028.6,026.3,000.0,036.8,030.2,27.2,0000.0,0005.58,0009.82,0005.18
2023-07-22 22:11:00,SystemResetWarning,0834.3,5.00,000.00,028.6,026.8,000.0,036.9,030.3,29.2,0000.0,0005.58,0009.95,0005.19
2023-07-22 22:12:00,SystemResetWarning,0834.4,4.98,000.00,028.7,027.1,000.0,036.9,030.4,28.4,0000.0,0005.57,0009.96,0005.19
2023-07-22 22:13:00,SystemResetWarning,0834.5,4.99,000.00,028.7,027.5,000.0,036.9,030.5,26.4,0000.0,0005.55,0009.88,0005.20
2023-07-22 22:14:00,SystemResetWarning,0834.4,5.00,000.00,028.8,027.0,000.0,036.9,030.5,25.6,0000.0,0005.53,0009.84,0005.19
2023-07-22 22:15:00,SystemResetWarning,0834.2,5.00,000.00,028.7,025.4,000.0,036.8,030.2,24.4,0000.0,0005.51,0009.82,0005.18
2023-07-22 22:16:00,SystemResetWarning,0834.2,5.01,000.00,028.6,024.8,000.0,036.8,030.0,25.5,0000.0,0005.50,0009.97,0005.18
2023-07-22 22:17:00,SystemResetWarning,0834.2,5.01,000.00,028.6,025.1,000.0,036.8,029.9,27.6,0000.0,0005.49,0010.13,0005.17
2023-07-22 22:18:00,SystemResetWarning,0834.2,4.99,000.00,028.6,025.5,000.0,036.8,030.0,27.8,0000.0,0005.48,0010.15,0005.17
2023-07-22 22:19:00,SystemResetWarning,0834.2,5.00,000.00,028.6,026.0,000.0,036.8,030.1,27.7,0000.0,0005.49,0009.84,0005.19
2023-07-22 22:20:00,SystemResetWarning,0834.2,5.01,000.00,028.6,026.5,000.0,036.9,030.2,29.9,0000.0,0005.50,0009.80,0005.19
2023-07-22 22:21:00,SystemResetWarning,0834.2,5.00,000.00,028.6,026.9,000.0,036.9,030.3,26.8,0000.0,0005.51,0009.30,0005.19
2023-07-22 22:22:00,SystemResetWarning,0834.2,5.00,000.00,028.7,027.3,000.0,036.9,030.5,24.5,0000.0,0005.53,0009.19,0005.19
2023-07-22 22:23:00,SystemResetWarning,0834.2,5.00,000.00,028.8,027.5,000.0,037.0,030.5,25.0,0000.0,0005.54,0008.96,0005.19
2023-07-22 22:24:00,SystemResetWarning,0834.2,4.99,000.00,028.8,026.4,000.0,036.9,030.4,25.4,0000.0,0005.55,0008.98,0005.20
2023-07-22 22:25:00,SystemResetWarning,0834.2,5.01,000.00,028.7,025.0,000.0,036.8,030.2,25.9,0000.0,0005.58,0009.05,0005.21
2023-07-22 22:26:00,SystemResetWarning,0834.2,5.01,000.00,028.6,024.9,000.0,036.8,030.1,26.4,0000.0,0005.59,0009.04,0005.22
2023-07-22 22:27:00,SystemResetWarning,0834.1,5.01,000.00,028.6,025.3,000.0,036.8,030.0,24.4,0000.0,0005.61,0009.01,0005.23
2023-07-22 22:28:00,SystemResetWarning,0834.2,5.00,000.00,028.6,025.7,000.0,036.8,030.1,25.6,0000.0,0005.62,0008.61,0005.25
2023-07-22 22:29:00,SystemResetWarning,0834.2,5.00,000.00,028.6,026.2,000.0,036.9,030.2,26.0,0000.0,0005.63,0008.48,0005.27
2023-07-22 22:30:00,SystemResetWarning,0834.2,5.01,000.00,028.6,026.6,000.0,036.9,030.3,26.1,0000.0,0005.66,0008.53,0005.28
2023-07-22 22:31:00,SystemResetWarning,0834.5,4.99,000.00,028.7,027.0,000.0,036.9,030.4,26.8,0000.0,0005.70,0008.61,0005.30
2023-07-22 22:32:00,SystemResetWarning,0834.4,5.00,000.00,028.7,027.4,000.0,037.0,030.5,27.3,0000.0,0005.69,0008.72,0005.30
2023-07-22 22:33:00,SystemResetWarning,0834.2,4.99,000.00,028.8,027.2,000.0,037.0,030.5,26.4,0000.0,0005.71,0008.68,0005.32
2023-07-22 22:34:00,SystemResetWarning,0834.2,5.00,000.00,028.8,025.6,000.0,036.9,030.3,23.8,0000.0,0005.72,0008.61,0005.34
2023-07-22 22:35:00,SystemResetWarning,0834.2,5.00,000.00,028.7,024.8,000.0,036.8,030.1,24.1,0000.0,0005.76,0008.73,0005.35
2023-07-22 22:36:00,SystemResetWarning,0834.2,5.01,000.00,028.6,025.1,000.0,036.8,030.0,23.9,0000.0,0005.80,0008.79,0005.37
2023-07-22 22:37:00,SystemResetWarning,0834.2,5.01,000.00,028.6,025.5,000.0,036.8,030.0,24.8,0000.0,0005.83,0008.84,0005.38
2023-07-22 22:38:00,SystemResetWarning,0834.2,5.00,000.00,028.6,026.0,000.0,036.8,030.1,26.9,0000.0,0005.82,0008.77,0005.39
2023-07-22 22:39:00,SystemResetWarning,0834.3,5.00,000.00,028.6,026.4,000.0,036.9,030.2,25.3,0000.0,0005.82,0008.89,0005.39
2023-07-22 22:40:00,SystemResetWarning,0834.3,4.99,000.00,028.7,026.8,000.0,036.9,030.4,25.3,0000.0,0005.84,0009.16,0005.40
2023-07-22 22:41:00,SystemResetWarning,0834.5,5.00,000.00,028.7,027.2,000.0,036.9,030.4,24.6,0000.0,0005.83,0009.13,0005.41
2023-07-22 22:42:00,SystemResetWarning,0834.3,5.01,000.00,028.8,027.5,000.0,037.0,030.5,24.5,0000.0,0005.82,0009.86,0005.43
2023-07-22 22:43:00,SystemResetWarning,0834.3,4.99,000.00,028.8,026.7,000.0,036.9,030.4,23.9,0000.0,0005.84,0009.96,0005.44
2023-07-22 22:44:00,SystemResetWarning,0834.2,5.00,000.00,028.7,025.2,000.0,036.8,030.2,25.2,0000.0,0005.85,0010.09,0005.46
2023-07-22 22:45:00,SystemResetWarning,0834.2,5.01,000.00,028.7,024.9,000.0,036.8,030.1,25.0,0000.0,0005.85,0010.17,0005.46
2023-07-22 22:46:00,SystemResetWarning,0834.2,4.99,000.00,028.6,025.2,000.0,036.8,030.0,24.3,0000.0,0005.86,0010.16,0005.47
2023-07-22 22:47:00,SystemResetWarning,0834.2,4.99,000.00,028.6,025.6,000.0,036.8,030.0,23.8,0000.0,0005.83,0010.35,0005.46
2023-07-22 22:48:00,SystemResetWarning,0834.2,5.01,000.00,028.6,026.1,000.0,036.9,030.2,24.4,0000.0,0005.78,0010.70,0005.45
2023-07-22 22:49:00,SystemResetWarning,0834.2,5.01,000.00,028.6,026.6,000.0,036.9,030.3,23.6,0000.0,0005.81,0010.69,0005.46
2023-07-22 22:50:00,SystemResetWarning,0834.2,5.00,000.00,028.7,027.0,000.0,036.9,030.4,23.9,0000.0,0005.79,0010.60,0005.46
2023-07-22 22:51:00,SystemResetWarning,0834.3,5.00,000.00,028.7,027.3,000.0,037.0,030.5,24.4,0000.0,0005.80,0010.33,0005.45
2023-07-22 22:52:00,SystemResetWarning,0834.3,5.00,000.00,028.8,027.4,000.0,037.0,030.6,23.0,0000.0,0005.82,0010.40,0005.44
2023-07-22 22:53:00,SystemResetWarning,0834.2,4.98,000.00,028.8,026.0,000.0,036.9,030.3,23.5,0000.0,0005.82,0010.11,0005.42
2023-07-22 22:54:00,SystemResetWarning,0834.2,5.01,000.00,028.7,024.8,000.0,036.8,030.2,24.6,0000.0,0005.81,0010.18,0005.42
2023-07-22 22:55:00,SystemResetWarning,0834.2,5.02,000.00,028.6,024.9,000.0,036.8,030.1,25.6,0000.0,0005.83,0010.23,0005.42
2023-07-22 22:56:00,SystemResetWarning,0834.2,4.99,000.00,028.6,025.3,000.0,036.8,030.0,26.4,0000.0,0005.84,0010.31,0005.40
2023-07-22 22:57:00,SystemResetWarning,0834.2,4.99,000.00,028.6,025.7,000.0,036.8,030.1,24.9,0000.0,0005.81,0010.24,0005.40
2023-07-22 22:58:00,SystemResetWarning,0834.6,5.00,000.00,028.6,026.2,000.0,036.9,030.2,25.0,0000.0,0005.80,0009.95,0005.40
2023-07-22 22:59:00,SystemResetWarning,0834.4,5.00,000.00,028.6,026.7,000.0,036.9,030.3,23.5,0000.0,0005.84,0009.57,0005.42
